COSMOS 2058

Last updated on Sat Oct 18 2025 00:02:15 GMT+0000 (Coordinated Universal Time)

1 20465U 90010A 25290.70161878 .00005540 00000+0 34017-3 0 9994 2 20465 82.4737 188.1325 0010794 99.3742 260.8708 15.09865080920658
UTC large
Height (km)
Speed (km/s)
/
Latitude / Longitude
Inclination (degrees)
Orbital Period (minutes)
Azimuth
Elevation
Range (km)
Doppler Factor

Next 0 passes for location: London (51.5072 / 0.1276)

Sorry there are no passes over London.